sat.trackr.live / text

‹ back to catalog

KUIPER-00046

NORAD 64506 · 2025-134G

PAYLOAD ACTIVE UNKNOWN

§ Identity

Operator
Country
US
Launch date
2025-06-23
Launch site
AFETR
Launch vehicle
Mass (kg)
RCS (m²)

External: N2YO · Heavens-Above · Gunter

§ Orbital elements

Epoch: 2026-09-21T17:25:35.950656Z

Period
97.30 min
Inclination
51.8993°
Eccentricity
0.0000933
Mean motion
14.79926458 rev/d
Perigee alt
628.9 km
Apogee alt
630.2 km
Semi-major
7,007.7 km
B*
2.0525e-4
RAAN
96.1471°
Arg perigee
120.8653°
Mean anomaly
239.2402°
Rev number
6,896

§ Raw data

KUIPER-000461 64506U 25134G   26264.72611054  .00001344  00000+0  20525-3 0  99902 64506  51.8993  96.1471 0000933 120.8653 239.2402 14.79926458 68962

JSON: /api/v1/satellites/64506 · /tle

For live sub-satellite position, see the globe view (requires WebGL).

§ Visibility from observer

Set your observer location to see the next 7 days of passes ≥ 10°. The values pass through the URL so the page stays shareable.

No JS? Fill the form by hand. The geolocation button needs JavaScript.